Regional Weather Roundup
Issued by NWS

Home | Current Version | Previous Version | Text Only | Print | Product List | Glossary On
Versions: 1 2 3 4 5 6 7 8 9 10 11 12 13 14 15 16 17 18 19 20 21 22 23 24 25 26 27 28 29 30 31 32 33 34 35 36 37 38 39 40 41 42 43 44 45 46 47 48 49 50
000
ASUS46 KSTO 240515
RWRCA

NORTHERN AND CENTRAL CA REGIONAL WEATHER ROUNDUP
NATIONAL WEATHER SERVICE SACRAMENTO CA
1000 PM PDT SUN APR 23 2017

NOTE: FAIR INDICATES FEW OR NO CLOUDS BELOW 12,000 FEET WITH NO
SIGNIFICANT WEATHER AND/OR OBSTRUCTIONS TO VISIBILITY.

CAZ001-003-240600-
NORTHWEST AREA

CITY           SKY/WX    TMP DP  RH WIND       PRES   REMARKS
CRESCENT CITY  LGT RAIN  50  46  86 S13       30.00F
UKIAH          PTCLDY    52  41  66 NW9       30.04R
$$

CAZ006-505>513-240600-
BAY AREA

CITY           SKY/WX    TMP DP  RH WIND       PRES   REMARKS
SANTA ROSA     MOCLDY    54  46  74 W7        30.00R
SAN RAFAEL     N/A       55  MM  MM MISG
NAPA           MOCLDY    55  48  77 W22       29.99R
CONCORD        MOCLDY    57  45  64 SW10      30.02R
OAKLAND CITY   N/A      MM  MM  MM MISG
OAKLAND        MOCLDY    56  50  80 W17       30.04R
SAN FRAN CITY  N/A       53  MM  81 MISG
SAN FRAN ARPT  MOCLDY    55  47  74 W31G40    30.03R
LIVERMORE      MOCLDY    53  46  77 SW8       30.03R
HAYWARD        MOCLDY    56  46  69 W15       30.05R
REDWOOD CITY   N/A       54  MM  75 MISG
MOFFETT ARPT   MOCLDY    54  46  74 NW5       30.06R
SAN JOSE ARPT  MOCLDY    55  45  68 NW8       30.05R
$$
CAZ034-037-514>518-240600-
CENTRAL COAST

CITY           SKY/WX    TMP DP  RH WIND       PRES   REMARKS
WATSONVILLE    MOCLDY    54  51  90 NE3       30.04R
SALINAS        PTCLDY    55  49  80 SW10      30.05R
MONTEREY       PTCLDY    54  48  80 W10       30.06R
SAN LUIS OBISP PTCLDY    54  49  83 NW9       29.96R
SANTA MARIA    PTCLDY    51  50  96 W9        29.96R
$$
CAZ015-016-240600-
NORTHERN SACRAMENTO VALLEY

CITY           SKY/WX    TMP DP  RH WIND       PRES   REMARKS
REDDING        CLOUDY    63  41  44 MISG      29.89R
RED BLUFF      CLOUDY    62  54  74 CALM      29.91R
OROVILLE       CLOUDY    63  49  60 SE12      29.93R
$$
CAZ016>018-240600-
SOUTHERN SACRAMENTO VALLEY

CITY           SKY/WX    TMP DP  RH WIND       PRES   REMARKS
AUBURN         MOCLDY    55  46  71 SE16G22   29.96F
BEALE AFB      MOCLDY    59  51  74 S9        29.92R
LINCOLN        FAIR      59  46  63 SE9       29.93S
MARYSVILLE     MOCLDY    59  50  72 S12       29.94R
SAC INTL ARPT  CLOUDY    57  51  80 SE10      29.94R
MATHER AIRPORT NOT AVBL
DOWNTOWN SAC   N/A       57  MM  MM MISG
SAC EXEC ARPT  CLOUDY    55  49  80 SW8G16    29.95R
VACAVILLE      MOCLDY    58  48  69 SW8       29.97R
TRAVIS AFB     MOCLDY    53  47  79 W24       29.94S
$$
CAZ019>021-240600-
SAN JOAQUIN VALLEY

CITY           SKY/WX    TMP DP  RH WIND       PRES   REMARKS
STOCKTON       MOCLDY    55  48  77 W13       29.99R
MODESTO        MOCLDY    58  42  55 NW8       29.98R
MERCED         MOCLDY    59  43  55 N9        29.97R
LEMOORE        CLEAR     63  38  39 NW16      29.95R
FRESNO         PTCLDY    63  46  54 NW14      29.94S
HANFORD        CLEAR     61  46  57 NW8       29.94R
PORTERVILLE      N/A     61  42  49 N5        29.95R
BAKERSFIELD    PTCLDY    63  35  35 N9        29.94R
$$
CAZ011-012-071-240600-
NORTHERN MOUNTAINS

CITY           SKY/WX    TMP DP  RH WIND       PRES   REMARKS
YREKA          CLOUDY    50  32  50 W13       29.91S
MOUNT SHASTA   CLOUDY    50  28  42 VRB5      29.90S
ALTURAS        CLOUDY    47  35  63 W14       29.90S
$$
CAZ011-012-071-240600-
SIERRA NEVADA MTNS

CITY           SKY/WX    TMP DP  RH WIND       PRES   REMARKS
BLUE CANYON    MOCLDY    41  39  93 SE5       30.01F
TRUCKEE        MOCLDY    34  28  80 SE5       30.00F WCI  30
TAHOE VLY ARPT PTCLDY    42  29  59 S12       30.01R
MAMMOTH LAKES  FAIR      44  27  51 E10       29.98F
$$




USA.gov is the U.S. government's official web portal to all federal, state and local government web resources and services.